Probability
0 0 0 0 0 0 0 0 0 0 0 0 0 0 0 0 0 0 0 0 0 0 0 0 0 0 0 0 0 0 0 0 0 0 0 0 0 0
0 0 0 0 0 0 0 0 0 0 0 0 0 0 0 0 0 0 0 0 0 0 0 0 0 0 0 0 0 0 0 0 0 0 0 0 0 0
0 0 0 0 0 0 0 0 0 0 0 0 0 0 0 0 0 0 0 0 0 0 0 0 0 0 0 0 0 0 0 0 0 0 0 0 0 0
0 0 0 0 0 0 0 0 0 0 0 0 0 0 0 0 0 0 0 0 0 0 0 0 0 0 0 0 0 0 0 0 0 0 0 0 0 0
0 0 0 0 0 0 0 0 0 0 0 0 0 0 0 0 0 0 0 0 0 0 0 0 0 0 0 0 0 0 0 0 0 0 0 0 0 0
0 0 0 0 0 0 0 0 0 0 0 0 0 0 0 0 0 0 0 0 0 0 0 0 0 0 0 0 0 0 0 0 0 0 0 0 0 0
0 0 0 0 0 0 0 0 0 0 0 0 0 0 0 0 0 0 0 0 0 0 0 0 0 0 0 0 0 0 0 0 0 0 0 0 0 0
0 0 0 0 0 0 0 0 0 0 0 0 0 0 0 0 0 0 0 0 0 0 0 0 0 0 0 0 0 0 0 0 0 0 0 0 0 0
0 0 0 0 0 0 0 0 0 0 0 0 0 0 0 0 0 0 0 0 0 0 0 0 0 0 0 0 0 0 0 0 0 0 0 0 0 0
0 0 0 0 0 0 0 0 0 0 0 0 0 0 0 0 0 0 0 0 0 0 0 0 0 0 0 0 0 0 0 0 0 0 0 0 0 0
0 0 0 0 0 0 0 0 0 0 0 0 0 0 0 0 0 0 0 0 0 0 0 0 0 0 0 0 0 0 0 0 0 0 0 0 0 0
0 0 0 0 0 0 0 0 0 0 0 0 0 0 0 0 0 0 0 0 0 0 0 0 0 0 0 0 0 0 0 0 0 0 0 0 0 0
0 0 0 0 0 0 0 0 0 0 0 0 0 0 0 0 0 0 0 0 0 0 0 0 0 0 0 0 0 0 0 0 0 0 0 0 0 0
0 0 0 0 0 0 0 0 0 0 0 0 0 0 0 0 0 0 0 0 0 0 0 0 0 0 0 0 0 0 0 0 0 0 0 0 0 0
0 0 0 0 0 0 0 0 0 0 0 0 0 0 0 0 0 0 0 0 0 0 0 0 0 0 0 0 0 0 0 0 0 0 0 0 0 0
0 0 0 0 0 0 0 0 0 0 0 0 0 0 0 0 0 0 0 0 0 0 0 0 0 0 3 0 0 0 0 0 0 0 0 0 0 0
0 0 0 0 0 0 0 0 0 0 0 0 0 0 0 0 0 0 0 0 0 0 0 0 0 0 0 0 0 0 0 0 0 0 0 0 0 0
0 0 0 0 0 0 0 0 0 0 0 0 0 0 0 0 0 0 0 0 0 0 0 0 0 0 0 0 0 0 0 0 0 0 0 0 0 0
0 0 0 0 0 0 0 0 0 0 0 0 0 0 0 0 0 0 0 0 0 0 0 0 0 0 0 0 0 0 0 0 0 0 0 0 0 0
0 0 0 0 0 0 0 0 0 0 0 0 0 0 0 0 0 0 0 0 0 0 0 0 0 0 0 0 0 0 0 0 0 0 0 0 0 0
0 0 0 0 0 0 0 0 0 0 0 0 0 0 0 0 0 0 0 0 0 0 0 0 0 0 0 0 0 0 0 0 0 0 0 0 0 0
0 0 0 0 0 0 0 0 0 0 0 0 0 0 0 0 0 0 0 0 0 0 0 0 0 0 0 0 0 0 0 0 0 0 0 0 0 0
0 0 0 0 0 0 0 0 0 0 0 0 0 0 0 0 0 0 0 0 0 0 0 0 0 0 0 0 0 0 0 0 0 0 0 0 0 0
Height
5790 5791 5791 5792 5792 5793 5794 5795 5796 5795 5795 5795 5795 5795 5794 5794 5794 5793 5792 5791 5789 5788 5786 5784 5783 5781 5779 5777 5775 5772 5770 5767 5764 5762 5759 5756 5752 5749
5783 5784 5784 5785 5785 5786 5786 5787 5787 5788 5788 5787 5787 5787 5786 5786 5785 5784 5782 5781 5780 5778 5776 5775 5773 5771 5769 5766 5764 5761 5759 5756 5753 5751 5748 5745 5742 5738
5776 5776 5777 5778 5778 5779 5779 5779 5780 5780 5779 5779 5779 5778 5778 5777 5776 5775 5773 5772 5770 5769 5767 5765 5763 5761 5759 5756 5754 5751 5749 5746 5744 5741 5738 5735 5731 5728
5769 5769 5770 5771 5771 5771 5772 5772 5772 5771 5771 5771 5771 5770 5769 5768 5767 5766 5764 5763 5761 5759 5757 5755 5753 5751 5749 5747 5744 5742 5739 5737 5734 5732 5729 5726 5722 5719
5762 5763 5763 5764 5764 5764 5764 5764 5764 5764 5764 5763 5762 5761 5760 5760 5758 5757 5755 5754 5752 5750 5748 5747 5745 5743 5740 5738 5736 5733 5731 5729 5726 5723 5720 5717 5714 5711
5756 5756 5756 5757 5757 5757 5757 5757 5757 5756 5756 5755 5754 5753 5752 5751 5750 5749 5747 5745 5744 5742 5740 5738 5736 5734 5732 5730 5728 5726 5723 5721 5718 5715 5713 5710 5706 5703
5749 5749 5750 5750 5750 5750 5750 5749 5749 5748 5748 5747 5746 5745 5744 5743 5742 5740 5739 5737 5736 5734 5732 5730 5728 5726 5724 5722 5720 5718 5715 5713 5710 5708 5705 5703 5700 5697
5742 5743 5743 5743 5743 5743 5743 5742 5742 5742 5741 5740 5739 5738 5737 5736 5734 5733 5731 5730 5728 5726 5724 5722 5720 5718 5716 5715 5713 5710 5708 5706 5704 5701 5699 5697 5694 5691
5736 5736 5736 5736 5736 5736 5736 5736 5735 5735 5734 5733 5732 5731 5730 5728 5727 5725 5724 5722 5721 5719 5717 5716 5714 5712 5710 5708 5706 5704 5702 5700 5698 5696 5693 5691 5689 5686
5730 5730 5730 5730 5730 5730 5730 5729 5729 5728 5727 5726 5726 5724 5723 5722 5720 5719 5718 5716 5715 5713 5711 5710 5708 5706 5704 5702 5701 5699 5697 5695 5693 5690 5688 5686 5684 5681
5725 5725 5725 5725 5725 5724 5724 5724 5723 5722 5721 5720 5719 5718 5717 5716 5714 5713 5712 5711 5709 5708 5706 5705 5703 5701 5699 5698 5696 5694 5692 5690 5688 5686 5684 5682 5679 5677
5720 5720 5720 5720 5720 5719 5719 5718 5717 5717 5716 5715 5714 5713 5712 5710 5709 5708 5707 5706 5704 5703 5701 5700 5698 5697 5695 5693 5691 5689 5688 5686 5684 5682 5680 5678 5675 5673
5717 5717 5716 5716 5716 5715 5714 5714 5713 5712 5711 5710 5709 5709 5708 5706 5705 5704 5702 5701 5700 5699 5698 5696 5694 5693 5691 5689 5687 5685 5683 5682 5680 5678 5676 5674 5672 5669
5714 5714 5714 5713 5713 5712 5711 5710 5710 5709 5708 5707 5706 5705 5704 5703 5702 5701 5699 5698 5696 5695 5694 5692 5691 5689 5687 5686 5684 5682 5680 5678 5676 5674 5673 5671 5669 5666
5713 5712 5712 5711 5711 5710 5709 5708 5708 5707 5706 5705 5704 5703 5702 5700 5699 5698 5696 5695 5693 5692 5690 5689 5687 5686 5684 5682 5681 5679 5677 5675 5673 5672 5670 5668 5666 5663
5712 5711 5711 5710 5709 5709 5708 5707 5706 5705 5704 5703 5702 5701 5699 5698 5697 5695 5694 5692 5691 5689 5688 5686 5684 5683 5681 5679 5678 5676 5674 5673 5671 5669 5667 5665 5663 5660
5712 5712 5711 5710 5709 5708 5707 5706 5705 5704 5703 5702 5701 5699 5698 5697 5695 5693 5692 5690 5688 5687 5685 5684 5682 5680 5679 5677 5675 5674 5672 5670 5668 5666 5664 5662 5660 5658
5714 5713 5712 5711 5709 5708 5707 5706 5705 5704 5702 5701 5700 5698 5697 5695 5694 5692 5690 5688 5687 5685 5683 5682 5680 5678 5677 5675 5674 5672 5670 5668 5666 5664 5662 5660 5658 5655
5715 5714 5713 5712 5711 5709 5708 5707 5706 5704 5703 5701 5700 5698 5696 5695 5693 5691 5689 5688 5686 5684 5682 5680 5679 5677 5675 5674 5672 5670 5668 5666 5664 5662 5659 5657 5655 5652
5717 5716 5715 5714 5712 5711 5709 5708 5707 5705 5703 5702 5700 5698 5696 5694 5693 5691 5689 5687 5685 5683 5681 5679 5678 5676 5674 5672 5670 5667 5665 5663 5661 5659 5657 5654 5652 5649
5720 5718 5717 5716 5714 5712 5711 5709 5708 5706 5704 5702 5700 5698 5696 5695 5693 5690 5688 5686 5684 5682 5680 5678 5676 5674 5671 5669 5667 5665 5663 5660 5658 5656 5653 5651 5648 5646
5722 5721 5719 5718 5716 5714 5712 5711 5709 5707 5705 5703 5701 5699 5697 5694 5692 5690 5688 5686 5684 5681 5679 5677 5674 5672 5669 5667 5665 5662 5660 5657 5655 5652 5650 5647 5644 5642
5724 5723 5721 5720 5718 5716 5714 5712 5710 5708 5706 5704 5701 5699 5697 5695 5692 5690 5687 5685 5683 5680 5677 5675 5672 5669 5667 5664 5662 5659 5657 5654 5651 5649 5646 5643 5640 5637
Wind_Speed
29 28 28 28 28 29 31 31 32 32 32 33 33 33 34 34 34 35 36 37 37 38 39 39 40 41 42 42 43 44 44 45 45 45 46 45 45 45
28 29 28 28 28 28 29 30 31 32 32 32 33 33 34 34 34 35 36 37 37 38 39 40 40 40 41 41 42 42 43 43 42 42 42 42 42 42
29 29 29 30 30 30 31 32 32 33 32 32 33 33 34 34 35 36 37 37 38 38 39 39 39 39 39 39 39 39 39 39 38 38 38 38 38 38
29 29 29 29 30 31 32 31 31 31 31 32 33 33 33 34 34 35 36 37 37 37 37 37 37 36 36 37 37 36 36 35 35 35 35 35 35 34
29 29 29 29 30 30 31 30 31 31 32 32 32 33 33 33 34 35 35 35 35 35 34 35 35 35 35 35 34 34 33 33 33 33 32 32 31 31
27 27 27 28 29 29 29 30 31 31 31 31 31 31 32 32 33 33 33 33 32 32 32 32 33 33 33 33 32 32 31 31 30 30 29 29 28 27
26 26 26 27 27 28 28 28 28 28 29 30 30 30 31 31 31 31 31 31 31 31 31 31 31 31 30 29 29 29 28 28 27 27 26 26 25 25
25 25 25 26 25 25 25 26 26 26 27 28 28 29 29 29 30 30 30 30 30 29 28 28 28 28 27 27 26 26 26 25 25 24 23 23 22 22
22 21 21 22 22 23 23 24 24 24 25 26 26 27 27 27 28 28 27 26 26 26 26 25 25 24 24 24 23 23 23 22 22 21 21 21 21 20
18 19 20 21 21 21 21 21 21 22 22 23 23 24 24 24 24 24 23 22 23 23 22 22 22 21 21 21 20 20 20 20 20 19 19 19 19 19
16 17 17 18 18 18 19 19 19 20 21 21 21 21 20 20 20 20 20 20 20 20 19 19 19 18 18 18 18 18 18 18 18 17 17 18 17 17
13 14 14 15 15 15 15 16 17 17 17 17 17 17 17 17 17 17 17 18 17 17 17 16 16 16 17 17 17 17 17 16 16 16 16 16 15 15
10 10 11 11 12 12 12 13 13 13 13 13 14 14 14 14 14 14 15 15 15 14 14 14 14 15 15 16 16 16 15 15 15 15 14 14 14 14
6 7 7 8 8 8 9 9 9 9 9 9 9 10 10 11 11 11 12 12 12 13 13 13 14 14 14 15 15 14 14 14 14 13 13 13 13 13
4 4 4 4 5 5 5 6 6 6 6 7 8 8 9 9 10 10 11 11 11 12 12 12 13 13 14 14 13 13 13 13 13 12 13 13 13 13
4 4 4 4 4 4 4 4 4 5 6 6 7 7 8 8 9 9 10 10 11 11 11 11 12 12 12 12 12 12 12 12 12 12 12 12 13 13
6 6 5 5 5 5 5 5 5 5 5 5 6 7 7 8 9 9 9 10 10 10 10 10 10 10 10 10 11 11 11 12 12 12 12 12 12 13
8 8 8 7 7 7 6 6 5 5 5 6 6 7 8 8 8 9 9 9 9 9 9 9 9 9 9 10 10 11 11 12 12 12 12 12 12 13
10 10 10 9 9 8 8 7 7 7 6 7 7 7 8 8 8 8 8 8 8 9 9 9 9 9 10 10 11 11 12 12 12 12 12 12 13 14
12 12 11 11 10 10 9 9 9 8 8 8 8 8 8 9 9 9 9 9 9 9 9 10 10 10 10 11 12 12 12 13 13 13 13 14 14 15
12 12 12 12 11 11 10 10 10 9 9 9 9 9 9 9 9 9 9 10 10 10 10 11 11 12 12 12 12 13 13 13 14 14 14 15 16 16
12 12 12 12 12 12 11 11 11 11 11 11 11 10 10 10 10 10 10 10 11 11 12 12 12 13 13 13 13 13 14 14 15 15 15 16 16 17
12 12 12 13 13 12 12 12 12 12 12 12 12 12 12 12 11 11 11 12 12 12 12 13 13 13 13 13 14 14 15 16 16 16 17 17 18 19
Wind_Direction
253 254 255 253 254 252 251 252 254 257 259 260 262 264 265 267 269 270 272 274 277 279 279 280 281 282 283 284 284 285 286 287 288 288 289 288 288 288
253 253 251 251 253 252 251 253 255 258 259 260 263 265 269 271 272 274 277 279 280 281 281 281 282 283 285 286 287 289 289 289 290 290 290 290 290 290
257 256 252 252 254 255 257 258 259 260 262 265 267 270 273 275 276 278 280 281 282 283 283 284 285 285 287 289 290 290 291 291 291 291 291 291 291 291
258 257 257 258 259 259 261 263 264 265 267 269 271 273 275 278 280 281 282 283 283 284 285 286 287 288 289 290 290 291 291 290 290 291 291 291 292 292
258 259 259 260 263 264 264 266 267 269 269 272 274 276 278 279 280 282 283 284 285 286 287 287 288 289 290 290 290 290 290 290 290 290 291 292 293 294
260 261 262 263 265 266 268 269 270 271 274 276 277 278 278 279 280 282 284 285 286 286 287 288 289 289 289 289 290 290 290 289 290 291 292 294 295 296
263 263 263 264 266 268 270 271 272 273 275 276 277 278 279 280 282 283 284 285 286 286 288 289 289 289 289 289 289 290 290 290 291 292 294 295 296 297
265 266 266 266 269 270 272 273 274 275 276 277 278 279 280 281 283 284 285 284 286 287 288 289 288 289 289 289 289 290 290 291 292 294 295 296 297 298
267 269 270 270 271 272 274 275 276 277 278 278 279 279 280 282 283 284 284 285 286 287 288 288 288 288 289 290 290 291 292 293 294 295 295 296 298 300
267 271 272 273 271 272 274 276 277 279 280 280 280 280 281 283 283 283 284 285 285 287 287 287 287 288 290 291 292 294 295 295 296 296 296 297 300 302
272 274 274 274 272 273 275 278 280 281 281 282 283 283 283 284 285 286 285 286 287 287 287 288 289 291 292 294 295 296 297 297 297 297 298 300 301 304
278 279 279 278 279 279 279 281 282 284 284 285 286 287 287 287 287 287 288 288 288 288 287 289 292 294 295 296 297 298 298 298 298 299 300 302 304 306
283 284 284 284 283 284 286 287 287 289 289 289 289 289 289 289 290 290 290 290 290 290 291 292 294 296 298 299 299 300 300 300 300 300 301 303 306 308
292 291 293 295 295 296 297 298 298 298 296 295 295 295 295 295 295 295 295 294 293 293 295 296 296 297 298 299 300 300 301 302 302 302 303 305 308 311
323 320 319 319 319 316 314 312 310 310 310 308 305 303 303 303 302 302 301 299 298 299 299 298 297 298 298 298 299 299 300 302 303 304 306 309 311 313
26 20 11 5 358 352 348 344 339 332 326 322 319 317 315 314 312 311 309 308 307 306 304 303 302 301 299 299 300 299 300 303 305 306 308 310 311 314
46 43 40 36 32 26 19 11 2 354 345 338 333 329 326 323 321 319 318 316 315 314 312 311 310 308 305 304 303 303 304 306 308 309 309 310 312 315
56 54 51 47 43 38 34 29 24 16 5 356 347 341 337 335 332 330 328 327 326 324 322 321 319 316 315 314 312 310 310 311 311 311 311 311 314 317
61 58 55 52 49 45 42 38 31 24 16 7 1 356 352 349 345 342 340 337 334 331 329 328 325 322 321 319 316 314 313 312 312 311 311 311 314 317
62 58 56 53 50 46 42 39 34 29 22 16 11 7 3 360 355 351 347 343 338 335 333 330 328 325 322 318 316 315 313 312 312 311 310 310 312 313
60 57 54 50 47 43 40 37 33 28 23 19 14 10 6 1 357 353 350 346 341 337 333 330 327 325 321 317 316 317 316 315 313 310 309 310 311 311
57 53 49 46 43 40 37 33 30 26 22 18 13 9 6 3 0 356 351 348 344 340 335 332 329 327 324 320 317 317 317 316 314 312 311 310 311 311
53 50 47 45 42 39 36 32 29 25 20 16 12 9 6 3 -0 357 353 349 345 342 340 337 334 331 327 324 321 318 317 316 315 313 311 310 309 309